Location: Theydon Bois
(51.6750°N, 0.1050°E)
Time: 11:19:15
(UTC+00:00)

Envisat - Pass Details

Date: 14 December 2019
Orbit: 764 x 766 km, 98.1° (Epoch: 18 January)

Event Time Altitude Azimuth Distance (km) Brightness Sun altitude
Rises 18:28:43 0° 187° (S) 3,222 6.4 -23.3°
Reaches altitude 10° 18:31:10 10° 196° (SSW) 2,301 5.7 -23.6°
Maximum altitude 18:35:53 38° 264° (W) 1,165 4.4 -24.4°
Drops below altitude 10° 18:40:37 10° 332° (NNW) 2,316 5.7 -25.1°
Sets 18:43:06 0° 341° (NNW) 3,247 6.4 -25.5°
